Location: Soapstone Prairie Natural Area
(40.9437°N, 105.0829°W)
Time: 13:22:40
(UTC-06:00)

ISS - Visible Passes

Search period start: 27 May 2018 00:00
Search period end: 06 June 2018 00:00
Orbit: 402 x 407 km, 51.6° (Epoch: 27 May)

Date Brightness Start Highest point End Pass type
(mag) Time Alt. Az. Time Alt. Az. Time Alt. Az.
27 May -1.1 00:06:48 10° NNW 00:09:04 17° NNE 00:09:31 17° NNE visible
27 May -0.8 21:37:07 10° NW 21:39:05 15° N 21:41:02 10° NNE visible
27 May -0.8 23:14:44 10° NNW 23:16:36 14° N 23:18:28 10° NE visible
28 May -0.9 00:50:40 10° NW 00:51:28 16° NW 00:51:28 16° NW visible
28 May -0.8 22:22:28 10° NNW 22:24:04 13° N 22:25:40 10° NNE visible
28 May -1.5 23:58:38 10° NW 00:00:50 24° N 00:00:50 24° N visible
29 May -0.8 21:29:56 10° NNW 21:31:31 13° N 21:33:07 10° NNE visible
29 May -1.3 23:06:35 10° NNW 23:08:59 19° NNE 23:10:14 15° NE visible
30 May -0.7 00:42:35 10° NW 00:42:52 12° NW 00:42:52 12° NW visible
30 May -1.0 22:14:29 10° NNW 22:16:29 15° NNE 22:18:30 10° NE visible
30 May -1.8 23:50:25 10° NW 23:52:18 28° NNW 23:52:18 28° NNW visible
31 May -0.9 21:22:16 10° NNW 21:23:56 13° N 21:25:38 10° NE visible
31 May -2.2 22:58:19 10° NW 23:01:14 29° NNE 23:01:45 27° NE visible
01 Jun -1.5 22:06:14 10° NNW 22:08:47 20° NNE 22:11:13 11° ENE visible
01 Jun -1.8 23:42:18 10° WNW 23:43:51 25° WNW 23:43:51 25° WNW visible
02 Jun -1.2 21:14:07 10° NNW 21:16:16 16° NNE 21:18:25 10° NE visible
02 Jun -3.4 22:50:04 10° NW 22:53:17 56° NNE 22:53:21 56° NE visible
03 Jun -2.5 21:57:54 10° NW 22:00:55 33° NNE 22:02:52 18° E visible
03 Jun -1.4 23:34:27 10° WNW 23:35:30 17° W 23:35:30 17° W visible
04 Jun -1.8 21:05:46 10° NNW 21:08:27 23° NNE 21:11:08 10° ENE visible
04 Jun -3.7 22:41:55 10° WNW 22:45:03 59° SW 22:45:03 59° SW visible
05 Jun -3.7 21:49:36 10° NW 21:52:52 70° NE 21:54:38 24° ESE visible
